Location: Willingham
(52.3167°N, 0.0667°E)
Time: 17:56:21
(UTC+00:00)

CZ-2C R/B - Pass Details

Date: 19 May 2025
Orbit: 631 x 692 km, 98.1° (Epoch: 23 June)

Event Time Altitude Azimuth Distance (km) Brightness Sun altitude
Rises 23:13:03 0° 13° (NNE) 2,944 8.3 -17.1°
Reaches altitude 10° 23:15:16 10° 11° (N) 2,028 7.3 -17.1°
Maximum altitude 23:19:39 72° 288° (WNW) 670 3.7 -17.3°
Enters shadow 23:22:00 27° 209° (SSW) 1,221 4.6 -17.3°
